Retour au catalogue

TITAN 4B R/B

ActifVLEO
NORAD 26474·ROCKET BODY·🇺🇸 United States

Lancé Aug 17, 2000 depuis Vandenberg Space Force Base

Loading…

Prochains Passages (prochaines 24 heures)

TLE

FraisSource: Space-Track

Époque: Sep 14, 2026, 12:35 UTC

1 26474U 00047B   26257.52468729  .00001949  00000-0  12366-3 0  9993
2 26474  67.9859 229.0209 0041960 195.6663 164.3192 15.10603845421421

Suivez TITAN 4B R/B en temps réel avec AllMySat

Download on the App Store